GFSNGP_700_rhum_174.txt.gz
RH
25 23 23 23 22 22 22 18 28 18 22 22 24 24 25 31 36 40 42 52 48 47 44 41 42 52 52 45 48 47 49 49 50 54 58 58 55 48 44 42 38 32 22 12
21 23 25 23 21 23 26 25 25 26 23 38 30 29 29 33 34 34 36 37 44 44 42 42 44 42 44 49 51 54 58 60 64 70 66 59 55 49 44 41 40 36 23 15
33 34 31 23 25 27 27 32 33 36 37 45 45 46 42 40 40 43 43 44 44 43 43 44 49 49 48 50 56 61 63 66 70 67 62 61 61 55 48 44 40 38 32 24
40 48 71 37 33 26 26 31 34 32 38 38 40 42 43 46 45 46 49 48 47 49 49 52 56 63 70 77 78 78 78 76 71 67 66 68 62 53 46 42 34 26 20 18
60 64 41 30 29 32 36 40 42 45 45 47 47 51 52 56 58 61 60 59 65 68 64 62 66 70 72 78 81 81 78 77 79 78 75 65 57 52 49 44 35 28 24 20
74 72 74 47 44 43 40 50 48 52 56 59 62 63 74 78 77 77 78 79 78 83 83 77 77 81 85 86 86 87 87 86 84 68 66 60 57 58 53 46 43 43 41 39
62 83 65 58 60 58 60 57 63 67 67 66 66 72 76 77 80 83 82 81 79 84 94 96 96 94 93 94 94 79 66 66 67 63 61 57 54 55 52 49 45 48 48 51
69 78 75 64 66 65 66 74 74 74 75 80 87 90 85 80 79 80 81 81 74 76 74 73 82 88 89 88 89 74 72 69 64 59 52 48 45 44 56 64 66 63 60 57
65 68 69 71 79 79 80 85 78 80 84 73 71 80 97 97 94 90 91 90 87 97 96 84 74 83 86 83 81 83 81 75 75 67 61 62 62 62 63 71 75 72 68 65
63 54 58 64 82 87 91 90 86 81 84 76 79 78 73 71 65 63 66 72 77 82 86 81 72 71 92 98 97 95 95 90 85 81 80 82 78 74 69 63 58 54 49 46
70 68 56 63 75 81 90 86 87 95 85 73 66 57 55 52 55 62 70 69 66 67 68 67 75 85 98 97 96 94 94 92 89 92 86 78 68 59 54 50 48 46 45 43
50 65 92 88 85 82 90 95 87 85 78 61 54 50 55 57 57 56 55 58 62 66 74 86 96 99 98 96 97 97 95 96 96 93 84 78 76 75 70 67 65 62 62 63
65 72 84 87 89 100 98 94 92 57 52 46 53 53 40 25 16 14 16 29 48 59 56 51 54 61 65 66 69 67 61 62 67 70 75 79 76 75 73 67 73 68 66 63
80 64 84 100 96 81 63 62 54 49 38 26 18 17 16 16 16 18 18 17 17 24 31 36 35 31 27 27 25 24 24 24 21 20 20 19 18 18 19 20 26 36 38 40
56 94 95 80 74 64 58 34 20 18 18 17 18 21 26 26 28 29 31 28 21 21 23 38 43 37 32 29 25 21 20 18 18 16 15 15 16 17 21 24 23 20 18 16
73 81 83 77 62 38 18 15 18 19 22 24 28 31 34 38 43 42 46 37 25 23 28 32 33 38 40 36 36 37 34 29 20 18 21 31 36 35 37 39 35 30 25 24
56 66 72 50 24 18 17 20 22 27 34 37 40 35 32 33 46 52 53 40 31 26 27 26 25 42 48 49 47 42 31 22 20 26 35 45 48 46 47 42 39 38 35 32
47 68 34 20 18 17 16 21 23 29 33 36 39 43 39 40 49 55 48 34 28 27 27 27 32 43 51 38 31 28 31 41 49 48 50 54 52 53 49 44 35 30 30 36
42 36 22 22 19 20 22 20 22 32 40 44 46 44 46 48 52 40 29 30 32 30 25 36 32 30 32 32 37 62 60 53 49 51 57 65 66 62 57 50 42 41 48 60
26 20 19 19 26 28 29 32 38 48 45 46 46 51 53 46 35 27 29 27 28 37 48 48 45 38 29 31 65 67 58 52 47 41 40 55 69 72 61 59 69 77 78 85
40 41 33 32 33 34 40 47 52 46 40 45 59 58 47 33 28 30 33 33 27 44 50 49 50 53 66 70 72 69 60 53 49 42 36 39 50 68 77 72 80 75 72 80
30 33 37 41 47 51 53 54 45 40 44 47 45 40 34 29 31 36 40 40 42 46 46 41 42 42 44 50 68 66 58 52 41 39 50 62 69 78 85 82 87 78 76 82
50 50 46 41 31 24 21 22 25 30 30 29 30 32 34 33 37 42 43 46 60 68 70 66 63 52 46 44 41 39 39 41 53 67 74 75 75 82 92 87 95 89 77 83
41 27 19 22 34 40 44 47 53 54 56 58 60 64 65 63 60 63 69 71 73 78 76 72 70 70 66 54 54 58 64 69 72 87 87 84 89 94 98 91 92 91 77 85
24 31 37 45 48 48 48 52 55 57 63 69 75 78 74 69 69 63 71 74 76 82 80 84 82 80 78 75 74 76 82 88 94 100 98 89 93 99 95 83 80 80 70 60
36 37 38 41 50 56 60 61 63 70 82 83 83 88 90 93 95 92 86 90 94 97 96 96 95 92 89 89 92 95 98 99 100 100 100 98 96 95 87 74 67 65 63 58
52 54 55 54 63 69 70 77 85 90 100 100 96 98 100 100 99 99 98 96 97 97 95 94 96 98 98 97 98 99 100 100 100 99 98 96 89 88 85 70 58 55 54 52

GFSNGP_700_rhum_177.txt.gz
RH
26 25 24 23 24 24 23 22 22 22 22 30 25 24 29 34 38 39 39 40 39 42 45 46 47 46 45 45 49 50 52 54 57 59 60 61 66 67 61 56 52 46 41 39
26 28 28 23 24 26 28 28 26 26 27 31 34 38 38 39 38 38 39 46 51 49 47 45 46 48 52 53 53 57 62 65 67 67 68 70 71 68 63 61 60 55 50 44
27 29 25 24 37 27 26 27 28 29 32 36 39 43 44 46 43 44 45 48 48 48 48 50 54 56 58 58 61 64 68 73 77 77 78 78 73 69 68 66 63 55 49 46
31 28 42 34 40 39 34 33 37 40 47 45 48 49 50 51 55 59 58 55 55 55 54 55 62 66 65 65 70 74 77 80 82 82 80 78 78 78 76 63 57 54 50 49
45 54 36 29 29 36 38 40 40 42 45 47 50 55 58 64 66 66 65 62 61 65 65 65 68 69 75 79 80 82 85 84 84 84 83 80 71 64 61 60 56 56 58 53
62 66 71 39 42 42 41 49 43 44 43 48 57 62 60 63 64 63 60 64 66 68 69 80 82 84 90 96 95 94 94 92 92 90 91 79 60 60 59 56 52 49 50 54
60 76 54 43 49 52 63 49 49 49 51 58 63 63 63 65 66 67 69 71 73 79 82 83 76 71 81 98 94 88 83 81 86 89 82 74 70 64 58 53 49 48 49 52
58 74 70 56 62 64 64 70 74 75 74 74 75 80 80 73 70 68 64 66 70 71 69 69 72 74 79 83 85 76 66 75 92 96 96 90 83 80 72 66 62 64 63 62
52 54 52 64 73 73 74 75 76 80 82 84 87 88 81 80 66 51 48 49 50 53 59 64 78 93 93 89 83 73 64 69 89 100 97 98 97 96 89 84 78 73 69 64
55 55 59 66 68 70 72 73 71 80 94 95 96 96 81 60 50 50 47 45 44 44 45 45 50 54 61 69 78 86 93 100 98 96 94 96 96 96 93 83 64 58 55 52
59 59 60 66 64 61 61 69 76 96 100 99 98 87 80 47 46 41 31 22 16 13 12 13 18 28 55 62 66 66 77 86 91 94 88 89 98 96 89 90 89 88 83 82
58 60 57 55 62 71 84 80 80 72 97 93 73 57 42 36 22 15 13 12 13 15 16 16 16 15 16 32 41 45 54 58 54 51 47 46 50 64 66 66 62 62 57 57
58 57 68 85 88 100 92 97 98 88 62 56 48 36 20 14 13 14 15 16 18 20 25 32 30 24 18 15 22 39 34 28 25 23 20 18 16 15 14 14 14 13 12 11
68 67 95 99 83 77 95 72 62 63 54 39 20 15 15 16 16 16 17 19 20 23 26 40 39 29 20 18 28 38 46 42 37 33 32 29 26 23 19 16 15 13 14 22
62 68 67 82 84 79 80 76 53 28 18 18 18 20 25 27 28 27 26 27 28 28 32 44 44 31 22 25 26 30 43 46 46 42 38 36 28 21 24 35 39 36 36 29
40 40 43 55 57 65 59 30 20 18 18 16 19 25 31 38 40 36 31 30 40 45 43 41 29 26 28 29 30 29 43 47 48 42 33 26 28 41 49 51 47 46 44 42
30 32 44 55 69 28 22 21 19 17 19 20 27 33 38 40 37 34 32 33 43 44 32 25 30 33 30 32 35 33 44 46 37 32 34 52 57 56 57 61 63 60 49 43
18 31 38 62 32 23 21 20 20 24 30 32 30 36 40 40 40 36 37 44 47 30 22 27 29 34 39 42 44 38 33 31 27 47 61 56 56 51 51 64 73 70 57 46
16 22 37 52 30 25 22 20 22 28 28 30 39 43 44 44 42 39 44 44 34 22 21 32 35 41 42 45 51 54 52 44 57 66 62 58 55 51 43 40 42 58 72 64
36 54 30 25 25 34 38 36 37 35 36 42 42 39 30 24 28 28 28 26 24 25 33 39 41 44 45 46 48 49 50 63 76 77 72 64 55 44 35 40 55 61 73 82
26 33 37 39 39 37 37 37 37 25 18 21 25 27 31 33 35 36 34 33 34 36 42 41 45 52 63 67 66 55 46 47 49 58 66 60 47 38 49 63 67 74 89 94
26 37 38 38 38 36 29 20 19 33 42 43 48 52 53 52 55 56 63 64 60 64 62 61 64 68 70 72 69 68 69 56 50 51 50 49 54 65 73 82 82 81 96 96
41 42 44 37 23 21 21 27 37 47 46 48 53 57 63 68 76 80 76 82 74 72 76 73 74 74 76 78 76 73 74 71 65 68 73 78 80 93 95 84 85 90 94 91
47 41 27 30 35 38 40 40 45 49 55 59 61 66 75 80 82 91 91 95 94 91 83 79 85 92 91 88 90 83 80 82 82 85 89 98 99 99 96 97 96 100 97 88
33 42 44 43 48 55 58 57 57 63 63 60 61 68 79 87 94 89 92 93 97 99 98 97 97 98 97 95 96 97 97 98 98 99 99 98 97 98 98 100 99 97 94 80
52 58 61 61 62 70 73 73 70 67 70 73 80 90 95 98 99 98 95 95 97 99 100 99 99 98 98 99 99 99 100 99 99 99 99 99 99 99 100 99 94 88 82 72
62 66 65 65 71 74 72 72 75 80 90 94 90 90 92 94 95 97 100 100 99 98 98 98 99 99 99 98 99 100 100 99 99 97 96 96 90 79 72 70 69 66 62 58

GFSNGP_700_rhum_180.txt.gz
RH
24 24 24 24 25 25 24 20 21 22 32 27 28 28 25 28 33 38 39 40 41 40 40 42 42 42 40 40 40 44 48 50 51 52 55 59 64 67 69 70 71 68 64 60
26 26 27 26 30 30 27 27 27 28 29 29 28 31 35 39 44 44 43 43 47 51 51 50 50 49 47 45 45 47 51 54 56 61 67 73 77 77 77 77 74 71 69 67
30 28 30 35 40 36 31 31 30 32 33 35 38 42 46 47 48 47 45 44 45 48 49 50 50 50 54 57 62 68 71 72 75 80 82 85 86 86 86 83 79 76 74 70
32 30 41 34 36 40 40 33 31 32 34 38 38 39 41 46 50 50 50 54 56 57 56 56 59 70 75 76 78 82 88 93 94 92 92 93 93 93 92 90 87 81 65 56
34 35 33 29 35 40 42 39 39 41 40 42 46 52 57 59 61 64 63 60 56 53 49 46 48 55 64 74 85 89 93 94 97 97 91 87 83 82 82 82 76 69 60 57
41 44 51 33 37 44 46 43 41 42 43 46 52 56 62 65 66 64 58 55 52 52 48 45 49 57 67 74 74 80 78 74 76 87 91 81 75 78 84 86 81 74 65 60
49 57 44 39 40 42 51 45 46 46 49 51 54 61 63 64 60 57 64 66 64 54 46 45 46 48 48 53 51 51 54 55 65 81 85 79 72 89 97 96 94 86 80 74
53 66 61 52 54 53 52 53 61 69 72 72 69 63 64 77 86 90 84 70 52 37 38 37 38 40 44 49 54 56 59 63 66 68 71 72 86 92 96 98 94 94 94 89
51 50 52 62 66 66 66 70 74 76 74 70 75 84 92 94 98 97 84 64 51 35 32 28 23 19 17 17 20 25 26 28 38 51 60 76 95 97 96 98 96 96 93 87
65 58 59 66 66 69 74 78 77 75 77 77 71 91 99 100 97 74 46 36 27 18 11 10 9 10 11 12 13 13 12 11 13 32 54 77 88 94 96 95 97 96 93 93
65 64 68 69 66 68 72 66 62 73 86 92 69 100 100 89 55 41 25 15 11 10 11 12 14 14 14 14 16 21 22 20 17 17 30 38 42 48 50 45 35 38 44 46
78 63 59 52 57 54 54 63 75 71 74 69 83 86 63 47 35 19 14 12 13 16 17 17 19 20 20 22 36 37 31 24 18 15 19 40 35 27 23 21 18 17 16 16
54 49 44 52 48 41 76 96 95 68 92 79 68 59 42 24 16 15 14 15 17 21 23 24 24 24 25 29 40 39 30 24 24 24 30 40 45 41 36 28 30 27 22 20
42 46 48 52 52 70 74 60 65 77 74 75 44 22 18 17 17 18 18 19 24 28 26 25 26 28 30 39 37 29 25 24 25 25 26 38 45 48 44 38 33 28 22 30
46 44 44 39 39 48 50 58 72 76 55 31 20 19 20 19 18 20 23 27 34 32 32 34 35 34 38 29 23 23 26 25 26 28 29 46 42 39 36 32 30 32 36 38
31 26 26 28 31 41 48 63 67 33 23 22 18 18 21 21 25 28 30 34 45 44 42 41 35 41 29 24 22 22 29 35 37 35 33 46 45 39 48 60 57 53 52 58
24 24 22 20 28 39 48 49 29 24 22 20 20 22 31 38 35 32 36 42 41 35 26 23 32 32 26 28 28 34 40 38 42 44 36 34 33 63 67 61 58 52 45 46
24 22 20 22 28 48 38 25 23 23 23 24 38 42 32 31 33 28 20 18 18 18 18 23 27 27 28 30 36 42 43 43 44 44 47 47 53 74 70 62 57 55 44 38
26 19 16 21 32 52 47 37 27 26 35 42 33 30 30 27 20 26 32 34 35 37 33 41 36 31 31 32 38 44 50 59 61 50 43 44 62 75 75 69 62 57 46 38
19 19 22 29 43 39 43 48 48 34 31 33 30 23 20 29 36 34 40 39 41 50 50 52 57 59 56 53 54 57 63 70 75 73 64 45 43 46 56 61 55 44 44 62
28 31 31 31 30 32 36 36 35 32 21 20 23 25 34 41 42 48 52 49 49 67 71 73 73 66 62 66 71 70 72 73 72 71 72 72 57 49 50 51 54 69 78 83
37 34 32 35 36 33 36 32 25 28 32 34 37 41 46 48 58 60 62 65 63 78 85 86 86 89 85 77 73 74 80 79 77 81 78 78 72 65 69 74 78 87 97 94
35 38 39 42 42 33 26 37 43 48 51 57 61 64 69 72 70 67 60 77 84 84 90 94 96 97 99 94 83 84 88 88 90 89 87 89 89 88 89 94 98 99 98 98
39 41 40 33 34 39 52 55 57 59 63 68 70 68 67 63 66 84 87 87 91 91 92 95 100 100 100 100 100 100 100 98 96 95 95 97 98 99 99 99 98 99 99 99
25 29 38 44 52 60 60 59 57 60 60 60 63 72 83 91 95 92 94 89 91 93 92 94 99 100 100 99 100 100 100 100 99 98 100 100 99 98 98 100 100 100 99 98
46 53 58 68 73 72 69 65 63 66 73 80 85 89 90 94 95 94 96 98 96 96 98 99 99 99 99 99 99 99 99 99 100 100 99 98 99 100 100 97 88 79 77 79
60 70 72 68 66 62 65 71 86 91 91 92 91 92 94 93 92 94 95 96 98 98 98 100 100 100 100 100 100 100 100 100 99 98 98 99 94 81 75 73 70 67 65 62

GFSNGP_700_rhum_183.txt.gz
RH
23 23 22 22 22 22 21 20 22 23 33 33 34 33 30 30 32 35 37 37 37 38 39 40 42 43 43 44 44 42 40 38 38 42 49 56 61 64 68 73 76 78 78 76
28 27 25 23 25 28 30 30 30 28 31 29 28 28 29 34 37 38 40 41 42 42 44 45 47 48 49 49 47 43 42 44 48 51 57 66 71 76 78 79 80 80 80 80
30 29 30 30 32 35 28 31 31 29 26 28 30 34 38 38 39 42 44 47 48 50 53 54 54 54 48 43 38 40 46 54 62 66 69 73 78 83 88 91 92 93 94 92
36 34 47 33 32 32 36 30 32 34 36 40 43 46 47 50 54 57 58 58 59 60 60 55 47 41 40 39 39 42 49 58 70 75 79 83 84 86 85 84 85 82 80 82
40 37 34 34 34 36 37 38 38 36 39 43 47 49 51 54 59 63 66 67 63 56 49 43 45 46 36 29 30 31 34 39 52 74 79 79 78 74 73 88 94 86 77 74
42 41 46 36 37 43 47 42 40 43 46 47 48 48 55 60 64 64 63 58 52 45 53 61 59 46 33 27 28 31 33 35 38 43 44 46 51 59 62 67 69 70 68 77
47 46 40 37 43 50 51 43 45 47 49 54 60 68 70 71 66 58 52 58 67 81 89 84 66 36 28 31 33 31 26 22 22 20 17 16 17 20 27 37 46 58 70 87
53 57 54 50 49 50 50 51 58 60 62 68 71 70 64 57 55 54 59 89 100 100 86 54 33 26 20 14 10 8 8 8 8 8 8 8 8 8 9 24 51 70 92 91
52 52 56 61 59 59 62 66 68 70 72 75 71 66 68 69 76 92 100 92 89 72 43 26 16 10 9 9 10 11 11 12 12 12 11 12 16 18 16 18 41 68 81 87
71 70 65 68 66 67 71 77 76 70 70 68 64 73 79 82 62 70 90 68 45 28 15 12 11 12 12 14 16 18 17 17 17 18 18 20 24 22 17 20 34 33 52 50
89 89 89 77 77 77 72 66 62 60 56 67 80 72 65 70 77 61 47 30 18 15 14 14 14 15 18 22 23 23 26 25 24 25 27 29 26 21 19 19 45 42 29 26
96 89 84 79 65 56 50 55 59 49 69 83 94 77 78 68 62 44 26 17 16 17 17 17 17 20 23 25 30 34 31 27 26 25 21 23 24 23 23 24 32 47 47 40
78 71 65 59 50 44 43 45 44 45 71 74 55 61 62 59 39 21 17 17 17 17 17 20 19 21 22 28 34 31 31 29 23 19 20 22 23 25 27 24 43 45 52 49
64 54 44 37 35 34 34 36 36 41 46 58 77 72 39 26 20 19 18 20 21 19 19 20 22 22 23 29 29 27 31 25 22 21 20 26 30 32 33 38 46 37 35 35
48 38 32 30 29 30 29 30 34 40 52 69 68 47 29 22 20 19 20 23 24 26 25 24 18 15 20 24 28 30 29 23 26 26 24 29 33 35 36 34 43 38 36 44
33 29 27 26 25 24 22 24 23 35 63 59 39 27 25 23 22 22 24 27 28 27 24 17 21 24 24 24 25 25 24 24 28 31 33 33 37 39 44 39 31 34 58 59
22 21 21 20 19 18 17 16 24 39 42 37 28 24 24 23 27 28 26 25 27 25 22 29 29 35 42 46 44 34 28 27 30 34 38 45 53 50 44 48 55 53 62 61
22 21 22 23 21 17 18 22 31 37 30 26 26 26 30 29 27 27 26 20 16 24 27 32 38 39 43 50 57 60 58 49 43 42 45 51 60 69 66 48 46 58 59 61
22 24 25 21 19 21 24 30 40 43 42 38 38 33 29 30 26 20 22 23 25 34 32 38 43 47 49 58 70 72 69 66 67 67 67 69 72 74 74 72 48 42 44 51
33 30 25 24 26 30 31 30 29 29 32 35 36 34 26 21 28 33 38 37 38 46 50 53 57 55 60 71 84 87 86 78 71 72 76 78 76 73 73 73 75 64 49 47
40 38 36 34 30 29 30 32 36 36 34 28 26 29 37 39 47 53 54 53 50 68 65 60 62 72 81 87 91 93 95 92 85 79 80 85 86 87 87 82 80 78 68 72
29 27 27 28 29 31 35 32 29 26 30 39 49 53 54 51 54 54 60 66 60 70 78 84 87 89 91 95 98 100 100 100 98 94 95 97 92 92 90 91 91 92 93 94
30 31 32 33 27 22 21 31 38 44 50 55 54 57 57 56 60 66 68 85 91 88 89 88 90 95 97 99 100 100 100 100 98 98 99 99 100 100 99 98 98 98 98 100
31 28 22 23 31 39 43 47 51 52 54 52 49 54 69 81 84 94 94 89 93 96 95 96 97 100 100 99 99 100 100 100 100 99 99 100 99 99 98 98 98 100 99 100
21 26 39 44 45 46 46 46 44 46 47 58 75 82 88 94 96 88 90 92 92 92 89 92 96 100 100 100 100 100 100 100 100 100 100 99 99 98 97 99 99 99 97 94
31 41 40 41 46 50 49 48 49 68 81 79 81 88 88 93 92 94 95 94 88 88 92 97 98 97 98 100 100 100 100 100 100 100 100 100 100 99 100 99 92 85 82 77
43 46 45 51 53 46 48 72 84 81 83 86 76 82 88 91 94 97 95 92 93 95 97 99 100 100 99 99 100 100 100 100 100 100 99 100 99 93 84 85 91 95 96 97